Home > Weather > Eberswalde > Past weeks

Flag for Germany Weather for the Past 2 Weeks in Eberswalde, Brandenburg, Germany

Now
63 °F

Clear.


Feels Like: 63 °F
Forecast: 51 / 73 °F
Wind: 10 mph from Southeast

Location: Berlin-Tegel

Current Time: May 7, 2016 at 12:52:44 AM

Latest Report: May 7, 2016 at 12:20 AM


Visibility: 10 mi

Pressure: 30.07 "Hg

Humidity: 42%

Dew Point: 39 °F

Location of EberswaldeLocation

Historic Weather in Eberswalde — Graph

°F

Eberswalde Temperature Yesterday

Maximum temperature yesterday: 75 °F (at 3:50 PM)
Minimum temperature yesterday: 48 °F (at 4:50 AM)
Average temperature yesterday: 63 °F

High & Low Weather Summary for the Past Weeks

 TemperatureHumidityPressure
High75 °F (May 6, 3:50 PM)93% (Apr 24, 10:50 PM)30.39 "Hg (Apr 24, 10:50 PM)
Low32 °F (Apr 29, 5:50 AM)22% (May 5, 11:50 AM)29.45 "Hg (Apr 26, 5:50 AM)
Average50 °F58%29.98 "Hg
* Reported Apr 21 11:20 PM — May 6 11:20 PM, Eberswalde, Weather by CustomWeather, © 2016

Note: Actual official high and low records may vary slightly from our data, if they occured in-between our weather recording intervals... More about our weather records

Advertising

Eberswalde Weather History for the Previous 24 Hours

Scroll right to see more
 ConditionsComfort  
Time TempWeatherWind HumidityBarometerVisibility
11:20 PM
Fri, May 6
64 °FClear.13 mph40%30.04 "Hg10 mi
10:50 PM64 °FClear.12 mph43%30.04 "Hg10 mi
10:20 PM64 °FPassing clouds.7 mph43%30.04 "HgN/A
9:50 PM66 °FPassing clouds.7 mph37%30.04 "HgN/A
9:20 PM66 °FPassing clouds.6 mph37%30.04 "HgN/A
8:50 PM68 °FPassing clouds.5 mph33%30.04 "HgN/A
8:20 PM68 °FSunny.8 mph33%30.04 "Hg10 mi
7:50 PM70 °FSunny.6 mph29%30.04 "Hg10 mi
7:20 PM72 °FPassing clouds.10 mph27%30.04 "HgN/A
6:50 PM73 °FSunny.9 mph25%30.04 "Hg10 mi
6:20 PM73 °FPassing clouds.10 mph23%30.04 "HgN/A
5:50 PM73 °FPassing clouds.12 mph22%30.04 "HgN/A
5:20 PM75 °FPassing clouds.12 mph24%30.04 "HgN/A
4:50 PM73 °FPassing clouds.13 mph25%30.07 "HgN/A
4:20 PM73 °FPassing clouds.10 mph27%30.07 "HgN/A
3:50 PM75 °FPassing clouds.8 mph24%30.07 "HgN/A
3:20 PM73 °FPassing clouds.9 mph23%30.09 "HgN/A
2:50 PM73 °FPassing clouds.9 mph27%30.09 "HgN/A
2:20 PM72 °FPassing clouds.12 mph29%30.09 "HgN/A
1:50 PM72 °FPassing clouds.9 mph31%30.12 "HgN/A
1:20 PM72 °FPassing clouds.10 mph29%30.12 "HgN/A
12:50 PM72 °FPassing clouds.10 mph33%30.12 "HgN/A
12:20 PM70 °FPassing clouds.10 mph33%30.15 "HgN/A
11:50 AM70 °FPassing clouds.8 mph33%30.15 "HgN/A
11:20 AM70 °FPassing clouds.10 mph35%30.15 "HgN/A
10:50 AM68 °FPassing clouds.10 mph35%30.18 "HgN/A
10:20 AM68 °FPassing clouds.10 mph35%30.18 "HgN/A
9:50 AM66 °FPassing clouds.9 mph37%30.18 "HgN/A
9:20 AM64 °FPassing clouds.8 mph43%30.18 "HgN/A
8:50 AM63 °FSunny.6 mph49%30.18 "Hg10 mi
8:20 AM61 °FPassing clouds.5 mph52%30.18 "HgN/A
7:50 AM57 °FPassing clouds.5 mph59%30.18 "HgN/A
7:20 AM54 °FPassing clouds.3 mph63%30.18 "HgN/A
6:50 AM52 °FPassing clouds.3 mph67%30.18 "HgN/A
6:20 AM50 °FClear.2 mph71%30.18 "Hg10 mi
5:50 AM48 °FClear.2 mph71%30.18 "Hg10 mi
5:20 AM48 °FPassing clouds.3 mph76%30.18 "HgN/A
4:50 AM48 °FClear.2 mph71%30.18 "Hg10 mi
4:20 AM50 °FPassing clouds.5 mph67%30.21 "HgN/A
3:50 AM50 °FPassing clouds.3 mph71%30.21 "HgN/A
3:20 AM50 °FPassing clouds.3 mph67%30.21 "HgN/A
2:50 AM52 °FClear.2 mph62%30.21 "Hg10 mi
2:20 AM52 °FPassing clouds.3 mph67%30.21 "HgN/A
1:50 AM54 °FPassing clouds.5 mph63%30.21 "HgN/A
1:20 AM54 °FPassing clouds.3 mph63%30.24 "HgN/A
12:50 AM55 °FPassing clouds.5 mph59%30.24 "HgN/A
12:20 AM55 °FClear.5 mph59%30.24 "Hg10 mi
Weather by CustomWeather, © 2016

See weather overviewHow to use our weather pages